TimeCDT,TemperatureF,Dew PointF,Humidity,Sea Level PressureIn,VisibilityMPH,Wind Direction,Wind SpeedMPH,Gust SpeedMPH,PrecipitationIn,Events,Conditions,WindDirDegrees,DateUTC
12:53 AM,57.0,44.1,62,30.03,10.0,WNW,4.6,-,N/A,,Clear,290,2012-10-15 05:53:00
1:53 AM,55.9,43.0,62,30.03,10.0,West,4.6,-,N/A,,Clear,280,2012-10-15 06:53:00
2:53 AM,55.9,43.0,62,30.02,10.0,WNW,4.6,-,N/A,,Clear,290,2012-10-15 07:53:00
3:53 AM,57.0,42.1,57,30.02,10.0,West,5.8,-,N/A,,Clear,270,2012-10-15 08:53:00
4:53 AM,55.9,42.1,60,30.02,10.0,West,3.5,-,N/A,,Clear,280,2012-10-15 09:53:00
5:53 AM,55.9,42.1,60,30.02,10.0,West,4.6,-,N/A,,Clear,260,2012-10-15 10:53:00
6:53 AM,54.0,42.1,64,30.04,10.0,WSW,3.5,-,N/A,,Clear,240,2012-10-15 11:53:00
7:53 AM,55.9,43.0,62,30.05,10.0,SW,4.6,-,N/A,,Clear,230,2012-10-15 12:53:00
8:53 AM,63.0,46.0,54,30.05,10.0,Calm,Calm,-,N/A,,Clear,0,2012-10-15 13:53:00
9:53 AM,69.1,46.0,44,30.06,10.0,WSW,3.5,-,N/A,,Clear,250,2012-10-15 14:53:00
10:53 AM,73.0,44.1,35,30.04,10.0,West,10.4,16.1,N/A,,Clear,270,2012-10-15 15:53:00
11:53 AM,75.0,43.0,32,30.03,10.0,West,8.1,18.4,N/A,,Clear,270,2012-10-15 16:53:00
12:53 PM,77.0,44.1,31,30.01,10.0,NW,12.7,-,N/A,,Clear,310,2012-10-15 17:53:00
1:53 PM,77.0,44.1,31,29.98,10.0,NW,9.2,-,N/A,,Clear,310,2012-10-15 18:53:00
2:53 PM,78.1,45.0,31,29.96,10.0,WNW,9.2,18.4,N/A,,Clear,290,2012-10-15 19:53:00
3:53 PM,79.0,44.1,29,29.95,10.0,NW,8.1,16.1,N/A,,Clear,310,2012-10-15 20:53:00
4:53 PM,78.1,43.0,29,29.93,10.0,West,8.1,-,N/A,,Clear,280,2012-10-15 21:53:00
5:53 PM,75.0,45.0,34,29.93,10.0,Calm,Calm,-,N/A,,Clear,0,2012-10-15 22:53:00
6:53 PM,68.0,46.9,47,29.93,10.0,SW,3.5,-,N/A,,Clear,230,2012-10-15 23:53:00
7:53 PM,66.0,46.0,48,29.94,10.0,SW,3.5,-,N/A,,Clear,220,2012-10-16 00:53:00
8:53 PM,64.0,46.0,52,29.94,10.0,SSW,3.5,-,N/A,,Clear,210,2012-10-16 01:53:00
9:53 PM,64.0,48.0,56,29.94,10.0,SSW,3.5,-,N/A,,Clear,210,2012-10-16 02:53:00
10:53 PM,60.1,48.0,64,29.93,10.0,SSE,3.5,-,N/A,,Clear,160,2012-10-16 03:53:00
11:53 PM,57.9,48.9,72,29.92,10.0,SE,3.5,-,N/A,,Clear,130,2012-10-16 04:53:00